Payson, AZ

4:05 AM MST on April 28, 2017 (GMT -0700)
Payson

Weather History for KPAN - September, 2012

Change the Weather History Date:

Sunday, September 2, 2012

  Actual Average Record
Temperature  
Mean Temperature 76 °F -  
Max Temperature 87 °F 88 °F 89 °F (2011)
Min Temperature 64 °F 54 °F 62 °F (2014)
Cooling Degree Days 10    
Growing Degree Days 26 (Base 50)    
Moisture  
Dew Point 56 °F    
Average Humidity 58    
Maximum Humidity 94    
Minimum Humidity 31    
Precipitation  
Precipitation 0.00 in - - ()
Sea Level Pressure  
Sea Level Pressure 30.18 in    
Wind  
Wind Speed 3 mph (NW)    
Max Wind Speed 12 mph    
Max Gust Speed 21 mph    
Visibility 10 miles    
Events      
Averages and records for this station are not official NWS values.
T = Trace of Precipitation, MM = Missing Value Source: NWS Daily Summary

Daily Weather History Graph

Daily Weather History Graph

Search for Another Location

Airport or City:

Trip Planner

Search our weather history database for the weather conditions in past years. The results will help you decide how hot, cold, wet, or windy it might be!

Date:

Astronomy

Sep. 02, 2012 Rise Set
Actual Time 5:59 AM MST 6:49 PM MST
Civil Twilight 5:34 AM MST 7:14 PM MST
Nautical Twilight 5:04 AM MST 7:44 PM MST
Astronomical Twilight 4:33 AM MST 8:15 PM MST
Moon 7:48 PM MST (9/2) 8:02 AM MST (9/2)
Length of Visible Light 13h 40m
Length of Day
12h 49m
Waning Gibbous, 95% of the Moon is Illuminated
Sep 2
Waning Gibbous
Sep 8
Last Quarter
Sep 15
New
Sep 22
First Quarter
Sep 29
Full

Hourly Weather History & Observations

Time (MST) Temp. Heat Index Dew Point Humidity Pressure Visibility Wind Dir Wind Speed Gust Speed Precip Events Conditions
12:15 AM 64.4 °F - 62.6 °F 94% 30.18 in 10.0 mi NW 4.6 mph - N/A   Clear
12:55 AM 66.2 °F - 60.8 °F 83% 30.18 in 10.0 mi Calm Calm - N/A   Clear
1:15 AM 66.2 °F - 60.8 °F 83% 30.18 in 10.0 mi Calm Calm - N/A   Clear
1:35 AM 64.4 °F - 60.8 °F 88% 30.18 in 10.0 mi Calm Calm - N/A   Clear
1:55 AM 64.4 °F - 60.8 °F 88% 30.18 in 10.0 mi Calm Calm - N/A   Clear
2:15 AM 64.4 °F - 60.8 °F 88% 30.17 in 10.0 mi Calm Calm - N/A   Clear
2:35 AM 64.4 °F - 60.8 °F 88% 30.17 in 10.0 mi WNW 3.5 mph - N/A   Clear
2:55 AM 64.4 °F - 60.8 °F 88% 30.17 in 10.0 mi Calm Calm - N/A   Clear
3:15 AM 64.4 °F - 59.0 °F 83% 30.17 in 10.0 mi Calm Calm - N/A   Clear
3:35 AM 64.4 °F - 60.8 °F 88% 30.17 in 10.0 mi Calm Calm - N/A   Clear
3:55 AM 64.4 °F - 57.2 °F 77% 30.17 in 10.0 mi Calm Calm - N/A   Clear
4:15 AM 64.4 °F - 59.0 °F 83% 30.17 in 10.0 mi Calm Calm - N/A   Clear
4:35 AM 64.4 °F - 59.0 °F 83% 30.17 in 10.0 mi Calm Calm - N/A   Clear
4:55 AM 64.4 °F - 59.0 °F 83% 30.17 in 10.0 mi Calm Calm - N/A   Clear
5:15 AM 64.4 °F - 59.0 °F 83% 30.18 in 10.0 mi Calm Calm - N/A   Clear
5:35 AM 64.4 °F - 59.0 °F 83% 30.18 in 10.0 mi Calm Calm - N/A   Clear
5:55 AM 64.4 °F - 59.0 °F 83% 30.18 in 10.0 mi Calm Calm - N/A   Clear
6:15 AM 64.4 °F - 57.2 °F 77% 30.19 in 10.0 mi Calm Calm - N/A   Clear
6:35 AM 64.4 °F - 57.2 °F 77% 30.19 in 10.0 mi Calm Calm - N/A   Scattered Clouds
6:55 AM 64.4 °F - 59.0 °F 83% 30.20 in 10.0 mi Calm Calm - N/A   Mostly Cloudy
7:15 AM 66.2 °F - 60.8 °F 83% 30.20 in 10.0 mi Calm Calm - N/A   Scattered Clouds
7:35 AM 66.2 °F - 59.0 °F 78% 30.21 in 10.0 mi Calm Calm - N/A   Mostly Cloudy
7:55 AM 69.8 °F - 60.8 °F 73% 30.21 in 10.0 mi Calm Calm - N/A   Partly Cloudy
8:15 AM 69.8 °F - 59.0 °F 68% 30.22 in 10.0 mi Calm Calm - N/A   Partly Cloudy
8:35 AM 73.4 °F - 57.2 °F 57% 30.22 in 10.0 mi Calm Calm - N/A   Mostly Cloudy
8:55 AM 75.2 °F - 57.2 °F 53% 30.22 in 10.0 mi Calm Calm - N/A   Scattered Clouds
9:15 AM 78.8 °F - 57.2 °F 47% 30.23 in 7.0 mi Calm Calm - N/A   Partly Cloudy
9:55 AM 80.6 °F 80.5 °F 55.4 °F 42% 30.23 in 10.0 mi Calm Calm - N/A   Partly Cloudy
10:15 AM 80.6 °F 80.5 °F 55.4 °F 42% 30.23 in 10.0 mi Calm Calm - N/A   Clear
10:35 AM 82.4 °F 81.4 °F 53.6 °F 37% 30.22 in 10.0 mi SSE 3.5 mph - N/A   Clear
10:55 AM 82.4 °F 81.7 °F 55.4 °F 39% 30.22 in 10.0 mi Calm Calm - N/A   Scattered Clouds
11:15 AM 84.2 °F - 51.8 °F 33% 30.21 in 10.0 mi SSW 3.5 mph - N/A   Partly Cloudy
11:35 AM 84.2 °F - 51.8 °F 33% 30.21 in 10.0 mi WNW 5.8 mph - N/A   Clear
11:55 AM 84.2 °F 82.8 °F 53.6 °F 35% 30.20 in 10.0 mi WNW 8.1 mph - N/A   Clear
12:15 PM 86.0 °F 84.2 °F 53.6 °F 33% 30.20 in 10.0 mi West 9.2 mph - N/A   Clear
12:35 PM 86.0 °F 84.2 °F 53.6 °F 33% 30.19 in 10.0 mi West 6.9 mph - N/A   Clear
12:55 PM 84.2 °F 82.8 °F 53.6 °F 35% 30.18 in 10.0 mi West 10.4 mph - N/A   Scattered Clouds
1:15 PM 84.2 °F 82.8 °F 53.6 °F 35% 30.18 in 10.0 mi West 8.1 mph - N/A   Scattered Clouds
1:55 PM 87.8 °F 85.7 °F 53.6 °F 31% 30.17 in 10.0 mi West 9.2 mph - N/A   Partly Cloudy
2:15 PM 84.2 °F - 51.8 °F 33% 30.16 in 10.0 mi West 4.6 mph - N/A   Mostly Cloudy
2:35 PM 86.0 °F - 51.8 °F 31% 30.15 in 10.0 mi West 8.1 mph - N/A   Mostly Cloudy
2:55 PM 84.2 °F - 51.8 °F 33% 30.14 in 10.0 mi West 9.2 mph - N/A   Mostly Cloudy
3:15 PM 84.2 °F 82.8 °F 53.6 °F 35% 30.14 in 10.0 mi West 9.2 mph - N/A   Scattered Clouds
3:35 PM 80.6 °F 81.1 °F 59.0 °F 48% 30.14 in 8.0 mi West 8.1 mph - N/A   Mostly Cloudy
3:55 PM 80.6 °F 80.8 °F 57.2 °F 45% 30.14 in 9.0 mi WSW 6.9 mph - N/A   Mostly Cloudy
4:15 PM 80.6 °F 80.5 °F 55.4 °F 42% 30.14 in 10.0 mi West 9.2 mph - N/A   Overcast
4:35 PM 80.6 °F 80.3 °F 53.6 °F 39% 30.14 in 10.0 mi WNW 6.9 mph - N/A   Mostly Cloudy
4:55 PM 82.4 °F 81.4 °F 53.6 °F 37% 30.14 in 10.0 mi WNW 6.9 mph - N/A   Partly Cloudy
5:15 PM 80.6 °F 81.5 °F 60.8 °F 51% 30.14 in 10.0 mi ESE 3.5 mph - N/A   Clear
5:35 PM 80.6 °F 80.8 °F 57.2 °F 45% 30.14 in 10.0 mi ENE 3.5 mph - N/A   Clear
5:55 PM 80.6 °F 81.5 °F 60.8 °F 51% 30.14 in 10.0 mi ESE 5.8 mph - N/A   Clear
6:15 PM 78.8 °F - 59.0 °F 51% 30.15 in 10.0 mi ESE 4.6 mph - N/A   Partly Cloudy
6:35 PM 75.2 °F - 57.2 °F 53% 30.16 in 10.0 mi ESE 4.6 mph - N/A   Clear
6:55 PM 73.4 °F - 57.2 °F 57% 30.16 in 10.0 mi East 4.6 mph - N/A   Clear
7:15 PM 73.4 °F - 57.2 °F 57% 30.17 in 10.0 mi Calm Calm - N/A   Clear
7:35 PM 71.6 °F - 57.2 °F 60% 30.17 in 10.0 mi NE 3.5 mph - N/A   Clear
7:55 PM 73.4 °F - 57.2 °F 57% 30.18 in 10.0 mi NNE 5.8 mph - N/A   Clear
8:15 PM 73.4 °F - 55.4 °F 53% 30.19 in 10.0 mi North 11.5 mph 16.1 mph N/A   Clear
8:35 PM 71.6 °F - 53.6 °F 53% 30.20 in 10.0 mi North 10.4 mph 20.7 mph N/A   Clear
8:55 PM 71.6 °F - 51.8 °F 50% 30.20 in 10.0 mi North 10.4 mph - N/A   Clear
9:35 PM 71.6 °F - 51.8 °F 50% 30.21 in 10.0 mi North 10.4 mph - N/A   Partly Cloudy
9:55 PM 71.6 °F - 51.8 °F 50% 30.21 in 10.0 mi North 8.1 mph - N/A   Clear
10:35 PM 71.6 °F - 50.0 °F 46% 30.22 in 10.0 mi Calm Calm - N/A   Clear
10:55 PM 69.8 °F - 51.8 °F 53% 30.22 in 10.0 mi NNE 4.6 mph - N/A   Clear
11:15 PM 69.8 °F - 51.8 °F 53% 30.21 in 10.0 mi Calm Calm - N/A   Clear
11:35 PM 69.8 °F - 51.8 °F 53% 30.21 in 10.0 mi NE 3.5 mph - N/A   Clear
11:55 PM 69.8 °F - 51.8 °F 53% 30.21 in 10.0 mi NE 5.8 mph - N/A   Clear